Regional Weather Roundup
Issued by NWS

Home | Current Version | Previous Version | Text Only | Print | Product List | Glossary Off
Versions: 1 2 3 4 5 6 7 8 9 10 11 12 13 14 15 16 17 18 19 20 21 22 23 24 25 26 27 28 29 30 31 32 33 34 35 36 37 38 39 40 41 42 43 44 45 46 47 48 49 50

425
ASUS43 KLMK 222310
RWRKY
KENTUCKY REGIONAL WEATHER ROUNDUP
NATIONAL WEATHER SERVICE LOUISVILLE KY
700 PM EDT FRI JUL 22 2016

NOTE "FAIR" INDICATES FEW OR NO CLOUDS BELOW 12,000 FEET
WITH NO SIGNIFICANT WEATHER AND/OR OBSTRUCTIONS TO VISIBILITY.

KYZ001>023-026-027-061>063-070>075-230000-
WESTERN AND SOUTH CENTRAL KENTUCKY

CITY           SKY/WX    TMP DP  RH WIND       PRES   REMARKS
PADUCAH        PTSUNNY   84  76  76 CALM      29.98F HX  93
HENDERSON      CLOUDY    82  73  74 CALM      29.98S
OWENSBORO      PTSUNNY   86  74  67 N9        30.00R HX  94
HOPKINSVILLE   PTSUNNY   82  72  71 W3        30.00S
BOWLING GREEN  CLOUDY    81  73  76 E6        30.01F
GLASGOW        CLOUDY    75  72  91 S3        30.02F
$$

KYZ024-025-028>034-038-045-046-053-230000-
NORTH CENTRAL KENTUCKY

CITY           SKY/WX    TMP DP  RH WIND       PRES   REMARKS
LOUISVILLE/SDF PTSUNNY   91  72  53 N8        29.98F HX  98
LOUISVILLE/LOU CLOUDY    88  72  58 NE6       30.00S HX  94
FORT KNOX      PTSUNNY   85  77  77 N3        29.98F THUNDER HX  95
$$

KYZ035>037-039>044-047>052-055>060-089>105-230000-
NORTHEAST KENTUCKY

CITY           SKY/WX    TMP DP  RH WIND       PRES   REMARKS
LEXINGTON      SUNNY     82  70  66 E12       30.04S
COVINGTON      CLOUDY    83  73  72 S14       30.01S
FRANKFORT      PTSUNNY   86  71  60 NW3       30.02S HX  91
$$

KYZ054-064>069-076>088-106>120-230000-
SOUTHEAST KENTUCKY

CITY           SKY/WX    TMP DP  RH WIND       PRES   REMARKS
JACKSON        CLOUDY    75  67  76 CALM      30.07R
LONDON         CLOUDY    88  70  55 NE6       30.03F HX  93
SOMERSET       TSTM      75  68  78 S10       30.05R
MIDDLESBORO    CLOUDY    86  73  64 CALM      30.03S HX  93
MONTICELLO     CLOUDY   N/A N/A N/A CALM      30.04S
$$





USA.gov is the U.S. government's official web portal to all federal, state and local government web resources and services.